| time (UTC) | temp F | wind direction | speed MPH | gust MPH | rain 1hr in | rain 24hr in | rain mn in | humidity % | barometer mb |
| 20260508041530 | 61 | 119 | 0.0 | 0.0 | 0.00 | 0.00 | 0.00 | 34 | 1017.1 |
| 20260508040030 | 62 | 96 | 0.0 | 1.0 | 0.00 | 0.00 | 0.00 | 32 | 1017.0 |
| 20260508034528 | 62 | 110 | 0.0 | 1.0 | 0.00 | 0.00 | 0.00 | 31 | 1017.1 |
| 20260508033031 | 63 | 96 | 0.0 | 6.0 | 0.00 | 0.00 | 0.00 | 30 | 1017.1 |
| 20260508031527 | 62 | 98 | 7.0 | 8.0 | 0.00 | 0.00 | 0.00 | 25 | 1016.8 |
| 20260508030041 | 60 | 153 | 0.0 | 0.0 | 0.00 | 0.00 | 0.00 | 26 | 1016.5 |
| 20260508024531 | 64 | 153 | 0.0 | 0.0 | 0.00 | 0.00 | 0.00 | 21 | 1016.4 |
| 20260508023025 | 65 | 188 | 0.0 | 1.0 | 0.00 | 0.00 | 0.00 | 19 | 1016.2 |
| 20260508021524 | 66 | 200 | 0.0 | 1.0 | 0.00 | 0.00 | 0.00 | 17 | 1015.7 |
| 20260508020024 | 68 | 200 | 0.0 | 0.0 | 0.00 | 0.00 | 0.00 | 16 | 1015.4 |
| 20260508014523 | 71 | 207 | 0.0 | 6.0 | 0.00 | 0.00 | 0.00 | 15 | 1015.4 |
| 20260508013022 | 73 | 187 | 5.0 | 9.0 | 0.00 | 0.00 | 0.00 | 12 | 1015.3 |
| 20260508011523 | 74 | 231 | 0.0 | 5.0 | 0.00 | 0.00 | 0.00 | 12 | 1015.2 |
| 20260508010026 | 74 | 203 | 6.0 | 13.0 | 0.00 | 0.00 | 0.00 | 11 | 1015.2 |
| 20260508004521 | 75 | 226 | 8.0 | 11.0 | 0.00 | 0.00 | 0.00 | 10 | 1015.2 |
| 20260508003021 | 75 | 188 | 5.0 | 10.0 | 0.00 | 0.00 | 0.00 | 9 | 1015.2 |
| 20260508001520 | 75 | 226 | 6.0 | 10.0 | 0.00 | 0.00 | 0.00 | 10 | 1015.2 |
| 20260508000022 | 76 | 208 | 0.0 | 8.0 | 0.00 | 0.00 | 0.00 | 10 | 1015.1 |
| 20260507234520 | 76 | 259 | 9.0 | 16.0 | 0.00 | 0.00 | 0.00 | 8 | 1015.2 |
| 20260507233018 | 76 | 224 | 6.0 | 25.0 | 0.00 | 0.00 | 0.00 | 8 | 1015.2 |
| 20260507231519 | 76 | 211 | 0.0 | 2.0 | 0.00 | 0.00 | 0.00 | 8 | 1015.2 |
| 20260507230016 | 76 | 236 | 11.0 | 16.0 | 0.00 | 0.00 | 0.00 | 7 | 1015.3 |
| 20260507224513 | 76 | 184 | 5.0 | 13.0 | 0.00 | 0.00 | 0.00 | 8 | 1015.4 |
| 20260507223011 | 76 | 266 | 8.0 | 12.0 | 0.00 | 0.00 | 0.00 | 8 | 1015.6 |
| 20260507221509 | 76 | 219 | 11.0 | 15.0 | 0.00 | 0.00 | 0.00 | 9 | 1015.7 |
| 20260507220006 | 76 | 245 | 9.0 | 16.0 | 0.00 | 0.00 | 0.00 | 8 | 1015.9 |
| 20260507214502 | 76 | 238 | 9.0 | 18.0 | 0.00 | 0.00 | 0.00 | 9 | 1016.0 |
| 20260507213106 | 75 | 280 | 9.0 | 14.0 | 0.00 | 0.00 | 0.00 | 10 | 1016.3 |
| 20260507211531 | 75 | 235 | 5.0 | 13.0 | 0.00 | 0.00 | 0.00 | 12 | 1016.7 |
| 20260507204533 | 75 | 246 | 4.0 | 15.0 | 0.00 | 0.00 | 0.00 | 12 | 1017.3 |
| 20260507203131 | 75 | 238 | 5.0 | 17.0 | 0.00 | 0.00 | 0.00 | 12 | 1017.4 |
| 20260507201600 | 74 | 233 | 7.0 | 18.0 | 0.00 | 0.00 | 0.00 | 11 | 1017.7 |
| 20260507194547 | 74 | 222 | 8.0 | 15.0 | 0.00 | 0.00 | 0.00 | 15 | 1018.2 |
| 20260507193005 | 72 | 294 | 9.0 | 15.0 | 0.00 | 0.00 | 0.00 | 15 | 1018.4 |
| 20260507191615 | 73 | 229 | 6.0 | 15.0 | 0.00 | 0.00 | 0.00 | 14 | 1018.7 |
| 20260507190007 | 72 | 236 | 6.0 | 12.0 | 0.00 | 0.00 | 0.00 | 17 | 1018.9 |
| 20260507184601 | 71 | 263 | 5.0 | 13.0 | 0.00 | 0.00 | 0.00 | 18 | 1019.1 |
| 20260507183013 | 69 | 358 | 2.0 | 7.0 | 0.00 | 0.00 | 0.00 | 20 | 1019.3 |
| 20260507181559 | 69 | 275 | 6.0 | 13.0 | 0.00 | 0.00 | 0.00 | 20 | 1019.5 |
| 20260507174556 | 68 | 201 | 0.0 | 7.0 | 0.00 | 0.00 | 0.00 | 23 | 1019.9 |
| 20260507173015 | 67 | 292 | 6.0 | 11.0 | 0.00 | 0.00 | 0.00 | 24 | 1020.1 |
| 20260507171604 | 66 | 325 | 1.0 | 6.0 | 0.00 | 0.00 | 0.00 | 26 | 1020.3 |
| 20260507164515 | 64 | 286 | 2.0 | 8.0 | 0.00 | 0.00 | 0.00 | 30 | 1020.6 |
| 20260507163112 | 64 | 312 | 4.0 | 9.0 | 0.00 | 0.00 | 0.00 | 32 | 1020.5 |
| 20260507161521 | 62 | 322 | 3.0 | 9.0 | 0.00 | 0.00 | 0.00 | 34 | 1020.6 |
| 20260507154547 | 60 | 7 | 5.0 | 9.0 | 0.00 | 0.00 | 0.00 | 41 | 1021.1 |
| 20260507153043 | 59 | 354 | 6.0 | 9.0 | 0.00 | 0.00 | 0.00 | 43 | 1021.3 |
| 20260507151540 | 57 | 12 | 6.0 | 11.0 | 0.00 | 0.00 | 0.00 | 46 | 1021.3 |
| 20260507150037 | 55 | 34 | 7.0 | 11.0 | 0.00 | 0.00 | 0.00 | 49 | 1021.3 |
| 20260507144533 | 54 | 3 | 8.0 | 11.0 | 0.00 | 0.00 | 0.00 | 52 | 1021.5 |
| 20260507143054 | 51 | 358 | 8.0 | 11.0 | 0.00 | 0.00 | 0.00 | 56 | 1021.6 |
| 20260507141547 | 49 | 3 | 9.0 | 12.0 | 0.00 | 0.00 | 0.00 | 60 | 1021.7 |
| 20260507140030 | 47 | 15 | 8.0 | 11.0 | 0.00 | 0.00 | 0.00 | 63 | 1021.8 |
| 20260507134530 | 46 | 22 | 9.0 | 11.0 | 0.00 | 0.00 | 0.00 | 65 | 1021.8 |
| 20260507133033 | 45 | 20 | 8.0 | 10.0 | 0.00 | 0.00 | 0.00 | 67 | 1021.7 |
| 20260507131532 | 43 | 30 | 7.0 | 10.0 | 0.00 | 0.00 | 0.00 | 68 | 1021.8 |
| 20260507130038 | 42 | 19 | 7.0 | 9.0 | 0.00 | 0.00 | 0.00 | 68 | 1021.8 |
| 20260507124525 | 40 | 55 | 6.0 | 8.0 | 0.00 | 0.00 | 0.00 | 68 | 1021.6 |
| 20260507123023 | 40 | 34 | 5.0 | 10.0 | 0.00 | 0.00 | 0.00 | 69 | 1021.5 |
| 20260507121518 | 44 | 38 | 8.0 | 14.0 | 0.00 | 0.00 | 0.00 | 65 | 1021.3 |
| 20260507120015 | 46 | 60 | 11.0 | 16.0 | 0.00 | 0.00 | 0.00 | 64 | 1021.0 |
| 20260507114517 | 47 | 83 | 13.0 | 22.0 | 0.00 | 0.00 | 0.00 | 63 | 1020.7 |
| 20260507113013 | 47 | 77 | 17.0 | 24.0 | 0.00 | 0.00 | 0.00 | 61 | 1020.6 |
| 20260507111510 | 47 | 88 | 17.0 | 21.0 | 0.00 | 0.00 | 0.00 | 61 | 1020.6 |
| 20260507110010 | 48 | 79 | 15.0 | 24.0 | 0.00 | 0.00 | 0.00 | 59 | 1020.6 |
| 20260507104508 | 48 | 105 | 16.0 | 22.0 | 0.00 | 0.00 | 0.00 | 58 | 1020.6 |
| 20260507103008 | 48 | 98 | 15.0 | 21.0 | 0.00 | 0.00 | 0.00 | 59 | 1020.6 |
| 20260507101507 | 48 | 74 | 12.0 | 17.0 | 0.00 | 0.00 | 0.00 | 60 | 1020.8 |
| 20260507100006 | 48 | 88 | 15.0 | 22.0 | 0.00 | 0.00 | 0.00 | 59 | 1020.8 |
| 20260507094503 | 48 | 82 | 16.0 | 20.0 | 0.00 | 0.00 | 0.00 | 59 | 1020.7 |
| 20260507093003 | 49 | 93 | 17.0 | 23.0 | 0.00 | 0.00 | 0.00 | 58 | 1020.5 |
| 20260507091601 | 49 | 86 | 15.0 | 22.0 | 0.00 | 0.00 | 0.00 | 58 | 1020.5 |
| 20260507091500 | 49 | 88 | 16.0 | 22.0 | 0.00 | 0.00 | 0.00 | 59 | 1020.5 |
| 20260507084557 | 46 | 24 | 3.0 | 8.0 | 0.00 | 0.00 | 0.00 | 61 | 1021.1 |
| 20260507083054 | 47 | 41 | 6.0 | 10.0 | 0.00 | 0.00 | 0.00 | 60 | 1020.9 |
| 20260507081554 | 48 | 69 | 11.0 | 16.0 | 0.00 | 0.00 | 0.00 | 59 | 1020.9 |
| 20260507080052 | 49 | 83 | 12.0 | 19.0 | 0.00 | 0.00 | 0.00 | 57 | 1020.9 |
| 20260507074543 | 49 | 89 | 17.0 | 20.0 | 0.00 | 0.00 | 0.00 | 57 | 1020.8 |
| 20260507073040 | 50 | 86 | 15.0 | 21.0 | 0.00 | 0.00 | 0.00 | 56 | 1020.8 |
| 20260507071537 | 51 | 60 | 12.0 | 17.0 | 0.00 | 0.00 | 0.00 | 55 | 1020.9 |
| 20260507070039 | 51 | 83 | 12.0 | 18.0 | 0.00 | 0.00 | 0.00 | 55 | 1020.9 |
| 20260507064546 | 51 | 64 | 7.0 | 16.0 | 0.00 | 0.00 | 0.00 | 53 | 1020.6 |
| 20260507063028 | 53 | 88 | 13.0 | 17.0 | 0.00 | 0.00 | 0.00 | 52 | 1020.3 |
| 20260507061523 | 54 | 60 | 11.0 | 20.0 | 0.00 | 0.00 | 0.00 | 50 | 1020.5 |
| 20260507060019 | 54 | 88 | 16.0 | 21.0 | 0.00 | 0.00 | 0.00 | 50 | 1020.2 |
| 20260507054519 | 54 | 93 | 9.0 | 16.0 | 0.00 | 0.00 | 0.00 | 48 | 1020.0 |
| 20260507053017 | 54 | 81 | 11.0 | 15.0 | 0.00 | 0.00 | 0.00 | 49 | 1020.1 |
| 20260507051517 | 54 | 88 | 6.0 | 9.0 | 0.00 | 0.00 | 0.00 | 48 | 1019.9 |
| 20260507050117 | 55 | 124 | 6.0 | 9.0 | 0.00 | 0.00 | 0.00 | 47 | 1019.7 |
| 20260507044513 | 57 | 36 | 4.0 | 7.0 | 0.00 | 0.00 | 0.00 | 38 | 1019.6 |
| 20260507043011 | 59 | 45 | 4.0 | 9.0 | 0.00 | 0.00 | 0.00 | 34 | 1019.2 |